Printer-friendly version

IAU Minor Planet Center

Minor Planet Center

MPEC 2006-H14 : 2006 HD2

The following Minor Planet Electronic Circular may be linked-to from your own Web pages, but must not otherwise be redistributed electronically.


Read MPEC 2006-H13 Read MPEC 2006-H15


M.P.E.C. 2006-H14                                Issued 2006 Apr. 20, 12:03 UT

     The Minor Planet Electronic Circulars contain information on unusual
         minor planets and routine data on comets.  They are published
   on behalf of Commission 20 of the International Astronomical Union by the
          Minor Planet Center, Smithsonian Astrophysical Observatory,
                          Cambridge, MA 02138, U.S.A.

                  Supported in part by the Brinson Foundation
                  Supported in part by the TABASGO Foundation
             Prepared using the Tamkin Foundation Computer Network

                              MPC@CFA.HARVARD.EDU
          URL http://cfa-www.harvard.edu/iau/mpc.html  ISSN 1523-6714

                                   2006 HD2

Observations:
     K06H02D* C2006 04 19.32066 15 35 45.97 -20 47 21.1          20.2 V EH014691
     K06H02D  C2006 04 19.33800 15 35 42.17 -20 47 21.1          20.3 V EH014691
     K06H02D  C2006 04 19.35533 15 35 38.41 -20 47 21.0          20.4 V EH014691
     K06H02D  C2006 04 19.41880 15 35 24.48 -20 47 18.8          20.5 V EH014291
     K06H02D  C2006 04 19.42443 15 35 23.33 -20 47 19.3          20.6 V EH014291
     K06H02D  C2006 04 19.43022 15 35 22.06 -20 47 18.9          20.8 V EH014291
     K06H02D  C2006 04 20.25218 15 32 34.73 -20 46 50.6          19.9 R EH014734
     K06H02D  C2006 04 20.25660 15 32 34.03 -20 46 50.9          19.9 R EH014734
     K06H02D  C2006 04 20.26102 15 32 33.02 -20 46 51.4          20.0 R EH014734
     K06H02D  C2006 04 20.31728 15 32 21.49 -20 46 46.5          20.7 V EH014291
     K06H02D  C2006 04 20.32120 15 32 20.61 -20 46 46.1          20.3 V EH014291
     K06H02D  C2006 04 20.32515 15 32 19.83 -20 46 45.9          20.8 V EH014291
     K06H02D  C2006 04 20.38280 15 32 07.51 -20 46 43.8          19.8 V EH014G96
     K06H02D  C2006 04 20.39052 15 32 05.85 -20 46 43.3          19.9 V EH014G96
     K06H02D  C2006 04 20.39809 15 32 04.27 -20 46 43.1          19.4 V EH014G96
     K06H02D  C2006 04 20.40577 15 32 02.58 -20 46 42.5          19.5 V EH014G96

Observer details:
291 LPL/Spacewatch II.  Observer T. H. Bressi.  1.8-m f/2.7 reflector + CCD.
691 Steward Observatory, Kitt Peak.  Observer T. H. Bressi.  0.9-m f/3
    reflector + CCD.
734 Farpoint Observatory.  Observer G. Hug.  0.7-m reflector + CCD.
G96 Mt. Lemmon Survey.  Observer R. A. Kowalski.  Measurers E. C. Beshore,
    E. J. Christensen, G. J. Garradd, A. R. Gibbs, A. D. Grauer, R. E. Hill,
    R. A. Kowalski, S. M. Larson, R. H. McNaught.  1.5-m reflector + CCD.

Orbital elements:
2006 HD2                                            PHA, Earth MOID = 0.0270 AU
Epoch 2006 Mar. 6.0 TT = JDT 2453800.5                  MPC
M  10.11251              (2000.0)            P               Q
n   0.35114420     Peri.   96.05058     -0.59253037     -0.80480717
a   1.9898135      Node    30.36980     +0.70941668     -0.54165424
e   0.5928054      Incl.    3.91765     +0.38162250     -0.24268521
P   2.81           H   21.2           G   0.15           U   9
Residuals in seconds of arc
060419 691  0.4-  0.1+    060420 734 (2.4-  0.5+)   060420 G96  0.4-  0.3+
060419 691  0.7-  0.1+    060420 734 (0.9+  0.1+)   060420 G96  0.5-  0.4+
060419 691  0.3-  0.0     060420 734  0.1-  0.5-    060420 G96  0.1-  0.1+
060419 291  1.2-  0.7+    060420 291  0.8-  0.0     060420 G96  0.8-  0.3+
060419 291  0.2-  0.0     060420 291  1.4-  0.3+
060419 291  0.3-  0.2+    060420 291  0.5-  0.4+

Ephemeris:
2006 HD2                 a,e,i = 1.99, 0.59, 4                   q = 0.8102
Date    TT    R. A. (2000) Decl.     Delta      r     Elong.  Phase     V
2006 04 15    15 51.42   -20 43.6    0.273    1.236   144.6    28.0    20.1
2006 04 25    15 17.43   -20 38.3    0.332    1.326   162.0    13.5    20.2
2006 05 05    14 51.94   -20 03.2    0.407    1.415   175.9     2.9    20.3
2006 05 15    14 35.05   -19 23.9    0.500    1.503   167.9     8.1    21.1
2006 05 25    14 25.50   -18 54.3    0.609    1.589   156.3    14.9    22.0

Timothy B. Spahr             (C) Copyright 2006 MPC           M.P.E.C. 2006-H14

Read MPEC 2006-H13 Read MPEC 2006-H15


Our Web policy. Index to the CBAT/MPC/ICQ pages.


Valid HTML 4.01!